Wind_Speed
21 24 27 29 31 33 35 37 39 40 41 41 41 40 38 39 39 37 38 38 38 36 33 30 27 24 22 19 19 20 20 20 20 19 17 16 15 15 15 15 14 14 15 16
17 22 24 27 29 32 34 37 39 40 41 42 41 40 38 38 38 39 39 40 40 38 36 34 31 27 24 21 20 21 21 21 21 20 18 16 15 14 14 14 14 15 16 18
16 20 23 26 29 33 35 37 39 41 42 43 42 39 36 36 37 37 37 38 40 40 39 39 34 29 26 23 22 22 22 22 22 21 19 16 15 14 14 15 17 18 20 21
13 17 21 24 27 31 34 36 39 41 41 41 41 40 32 33 33 32 30 32 36 40 41 40 36 31 27 26 25 24 23 22 22 21 18 17 15 15 15 17 19 21 22 23
12 16 20 23 26 28 30 31 34 36 38 39 38 39 32 32 31 30 28 28 30 36 40 39 35 31 28 29 29 26 24 22 21 20 17 17 16 17 19 20 22 23 23 24
17 22 25 28 31 32 33 32 31 30 31 31 30 32 30 31 31 30 28 26 26 29 36 37 35 32 33 35 32 26 24 22 21 18 16 16 17 19 21 22 23 24 24 23
19 25 29 32 34 35 35 34 32 30 27 25 23 24 27 28 29 28 26 23 21 23 27 31 34 36 36 35 30 24 22 20 18 16 15 16 18 21 22 23 24 24 24 23
24 27 32 36 38 38 36 34 32 31 28 22 21 22 22 22 22 21 19 17 18 18 20 25 29 31 33 33 28 23 19 16 15 15 16 18 20 22 22 23 24 24 24 24
32 33 37 41 43 42 38 33 31 30 29 24 22 23 23 21 17 16 15 16 17 18 19 22 25 26 27 27 24 18 14 12 13 16 18 20 21 22 23 24 24 24 24 23
40 43 44 45 43 41 37 31 29 28 26 22 20 21 23 21 20 18 18 18 18 20 22 24 25 25 22 20 18 14 11 11 14 17 20 21 22 22 23 24 24 24 23 22
46 48 47 44 39 32 28 27 26 25 23 21 18 17 19 19 20 19 19 19 20 20 22 23 23 21 18 16 12 10 10 12 15 18 20 21 22 23 24 26 25 24 22 21
48 45 40 34 25 20 18 19 21 22 20 20 18 17 15 14 14 16 17 16 15 15 15 14 14 12 10 8 8 9 11 14 17 20 22 23 25 25 25 24 24 22 20 19
43 37 28 19 13 10 9 10 13 15 15 15 16 16 14 13 12 13 11 9 8 7 7 7 7 5 4 5 6 10 12 16 19 21 24 25 25 23 22 22 21 20 18 17
35 28 21 14 6 2 1 0 5 8 11 12 14 12 11 11 11 11 9 7 5 5 5 6 7 6 6 7 9 12 15 17 19 22 24 25 23 19 18 19 19 18 18 18
27 20 16 9 4 4 6 6 8 9 10 9 8 9 9 9 9 9 8 7 8 8 8 8 9 9 10 11 14 16 17 19 21 22 24 24 19 17 16 17 18 19 20 20
22 17 14 9 7 9 11 12 10 8 5 3 2 2 3 4 5 5 6 7 9 10 11 11 11 12 14 17 18 19 19 20 20 21 22 20 19 17 16 17 19 19 19 19
23 20 17 14 14 14 14 13 12 10 8 6 5 4 3 2 1 1 2 3 5 7 9 11 13 14 15 17 18 18 17 17 18 18 18 18 18 18 19 20 20 20 21 21
27 25 23 20 18 16 15 14 14 14 12 10 9 8 7 7 6 4 3 3 4 5 6 7 8 9 10 12 13 13 13 14 15 16 17 19 20 20 20 20 21 21 22 22
30 28 26 23 20 18 17 16 16 16 15 14 13 12 12 12 11 10 8 5 3 3 2 2 3 5 7 8 9 11 12 13 15 16 17 18 19 19 20 20 21 21 22 22
29 27 26 24 21 20 18 17 16 16 16 15 14 13 13 12 11 10 10 8 6 5 4 2 1 3 5 7 9 11 13 14 15 16 16 17 18 19 19 20 20 21 21 21
27 25 25 23 21 20 17 16 15 15 15 14 13 13 12 11 11 11 10 9 7 5 3 3 4 6 8 9 11 12 14 15 15 16 17 17 18 19 19 20 20 20 20 20
24 22 21 19 18 16 14 13 12 11 12 12 11 11 11 11 11 10 9 8 7 6 5 6 7 8 10 11 12 14 15 16 16 17 18 18 19 20 19 19 18 18 18 18
22 19 17 16 14 13 11 10 9 8 8 9 9 9 10 11 10 10 9 8 8 8 9 9 10 11 11 12 13 14 16 17 18 19 19 20 20 19 18 17 16 15 15 17
23 18 14 12 10 8 7 6 5 4 5 6 7 8 9 9 9 8 8 8 9 10 11 11 11 12 13 13 14 15 16 18 19 19 19 19 18 17 16 15 14 15 16 17
27 21 16 11 8 6 4 3 3 3 3 4 5 5 7 7 7 7 7 9 10 11 11 12 13 14 14 15 15 16 17 17 17 17 16 15 14 14 13 13 13 14 16 18
29 26 21 14 9 6 5 3 2 2 2 3 3 3 4 4 5 6 7 9 10 11 12 13 15 16 16 16 17 18 18 17 16 15 15 14 14 13 12 11 12 14 16 17
Wind_Direction
259 261 263 266 268 267 267 266 266 266 265 264 266 268 270 273 274 274 272 273 275 276 272 273 275 276 275 276 276 275 273 269 268 267 268 270 275 281 286 288 286 281 288 294
266 265 268 269 269 268 268 267 267 266 266 266 265 265 266 268 271 272 271 271 271 270 267 271 272 271 271 270 272 274 273 272 271 271 273 276 280 286 290 290 288 288 290 293
274 273 272 272 271 270 269 268 266 266 265 266 266 263 263 263 265 267 267 266 267 262 265 269 267 266 266 267 268 269 271 272 272 274 278 281 285 288 289 289 292 294 295 293
289 290 287 286 282 278 273 271 268 265 264 262 262 262 257 260 262 264 264 265 264 261 260 260 258 259 259 262 263 265 266 267 270 274 278 282 284 287 289 290 291 292 292 291
311 307 306 305 301 294 288 282 276 271 268 264 260 260 256 256 255 256 258 263 262 257 251 248 248 249 250 253 254 258 261 263 266 271 274 278 283 291 294 293 293 293 293 291
318 312 312 310 306 302 298 293 288 280 275 271 263 260 257 253 252 252 254 256 256 249 242 238 237 239 240 241 242 245 254 259 266 270 272 278 287 294 295 294 295 295 294 291
314 312 309 306 303 300 296 292 289 283 277 272 263 257 252 251 250 250 250 251 248 241 236 234 232 234 236 237 235 233 242 253 262 266 273 282 289 292 293 294 294 293 291 289
308 308 306 301 297 294 289 285 281 276 274 264 253 249 244 240 236 239 237 235 228 221 224 226 228 233 237 239 230 223 230 240 254 267 277 283 287 289 291 292 291 291 291 292
311 308 303 298 295 292 287 279 272 267 266 258 249 248 248 241 230 227 229 228 228 230 226 224 229 233 234 232 228 222 223 238 259 273 280 282 285 288 290 291 290 290 291 291
313 309 305 298 293 290 283 274 261 258 258 253 248 249 253 249 244 239 240 240 238 233 228 223 225 225 224 216 212 212 226 247 265 274 278 280 283 287 289 290 289 288 288 288
314 311 307 302 298 288 276 265 255 251 249 243 244 244 249 247 243 241 246 249 241 229 225 224 223 217 207 198 203 220 243 261 272 277 277 278 280 282 286 288 287 284 282 283
316 312 310 306 298 289 275 261 252 249 245 239 239 243 251 255 253 248 250 243 230 228 228 231 226 214 196 199 216 232 254 271 279 279 278 277 281 285 288 289 288 284 279 277
321 321 320 311 294 288 281 264 250 243 234 228 228 238 254 275 276 273 267 245 225 222 229 238 233 223 211 206 221 243 262 273 278 281 283 284 288 289 292 293 292 289 281 273
330 333 339 338 330 318 342 253 188 182 184 201 217 235 258 276 287 291 289 277 261 238 222 239 250 245 237 236 246 256 266 274 281 286 289 291 289 287 291 294 294 291 283 275
343 350 357 1 23 54 72 91 126 150 177 204 225 247 263 274 278 277 275 263 245 238 242 247 247 251 257 258 260 263 271 280 286 290 293 294 291 288 292 293 292 291 283 277
4 15 24 37 68 69 74 86 99 122 145 168 211 258 278 291 278 265 260 253 242 236 239 241 244 253 262 269 272 274 278 284 288 293 294 294 297 299 298 296 295 293 290 284
25 39 50 67 75 74 74 77 80 89 99 98 97 102 94 76 171 230 224 219 222 226 230 235 245 256 266 273 276 279 283 284 289 292 295 300 302 301 299 298 297 296 294 291
47 58 64 69 71 73 72 72 74 81 84 83 91 97 101 91 108 114 117 153 174 198 215 234 249 262 270 273 275 277 282 286 290 292 296 298 299 300 299 299 298 296 295 292
59 64 66 66 67 70 68 70 73 77 78 82 85 96 102 97 89 89 91 89 95 127 157 222 258 270 273 274 274 277 282 287 292 295 298 299 300 300 299 298 297 296 295 292
61 63 64 65 65 66 65 68 73 76 80 78 86 91 95 94 87 86 86 83 80 82 87 75 344 296 285 285 288 290 294 298 301 303 304 306 307 305 303 300 298 297 297 294
56 59 61 62 62 62 63 68 76 78 76 80 81 83 88 89 88 89 89 82 76 64 44 2 327 312 305 303 303 303 303 305 307 307 308 311 313 312 309 305 302 300 298 296
51 54 56 59 61 62 60 65 76 79 73 74 74 80 87 90 89 89 84 75 61 38 11 350 336 327 321 317 314 311 308 308 307 306 305 308 310 312 311 308 305 303 302 300
45 48 53 57 60 61 60 62 71 71 69 73 77 91 96 95 92 87 78 63 43 21 2 350 342 338 334 328 322 317 312 309 307 304 303 304 306 308 310 309 309 310 310 308
40 41 46 51 56 54 52 53 64 65 70 78 87 98 100 96 91 83 67 46 27 12 360 354 351 349 345 340 335 331 325 319 315 313 311 310 310 312 313 314 314 315 314 313
33 33 32 33 35 37 40 40 48 66 80 93 101 102 96 89 83 71 51 31 18 10 7 7 5 1 356 352 348 343 338 332 329 327 326 327 328 328 327 324 321 321 320 320
28 26 23 20 15 19 23 19 44 106 117 111 121 116 100 82 69 58 42 26 17 14 13 11 8 4 0 358 356 353 351 349 349 350 351 352 352 351 348 344 339 336 334 333
Height
5856 5857 5856 5855 5855 5854 5853 5852 5851 5851 5851 5851 5851 5852 5854 5852 5852 5852 5852 5852 5852 5853 5854 5855 5857 5858 5859 5860 5860 5859 5859 5859 5859 5858 5858 5858 5858 5857 5856 5855 5854 5854 5853 5851
5852 5851 5850 5849 5847 5845 5844 5843 5841 5840 5840 5840 5841 5843 5845 5844 5843 5843 5844 5844 5843 5844 5846 5848 5850 5851 5853 5854 5854 5854 5854 5853 5853 5853 5854 5854 5853 5853 5852 5851 5850 5849 5848 5846
5847 5846 5843 5841 5839 5837 5835 5833 5831 5830 5829 5828 5829 5833 5835 5835 5834 5834 5835 5836 5836 5836 5837 5840 5842 5844 5846 5847 5848 5848 5848 5848 5848 5848 5849 5849 5848 5848 5847 5846 5845 5844 5842 5841
5843 5841 5838 5835 5832 5829 5826 5823 5821 5819 5818 5818 5818 5820 5826 5824 5824 5824 5825 5826 5826 5827 5829 5831 5834 5836 5839 5841 5841 5842 5843 5843 5844 5844 5844 5844 5844 5843 5843 5841 5840 5838 5836 5834
5839 5836 5832 5829 5825 5821 5817 5815 5812 5810 5808 5808 5808 5809 5816 5813 5813 5813 5814 5815 5816 5818 5820 5823 5825 5828 5830 5832 5833 5834 5835 5837 5838 5839 5839 5839 5839 5838 5836 5835 5833 5831 5829 5827
5834 5829 5825 5821 5816 5812 5808 5806 5803 5801 5800 5800 5800 5801 5804 5802 5802 5803 5805 5806 5808 5810 5812 5815 5818 5819 5821 5822 5824 5825 5828 5830 5832 5833 5834 5834 5833 5831 5830 5828 5826 5824 5822 5820
5830 5824 5818 5812 5806 5803 5798 5796 5794 5793 5793 5793 5794 5794 5794 5793 5794 5796 5798 5799 5800 5802 5805 5808 5811 5812 5812 5813 5815 5817 5821 5824 5826 5827 5828 5828 5827 5825 5824 5822 5820 5818 5816 5814
5823 5819 5810 5802 5796 5792 5789 5788 5787 5786 5785 5787 5787 5787 5787 5787 5788 5790 5792 5794 5795 5797 5799 5802 5804 5805 5806 5807 5808 5810 5815 5819 5822 5823 5823 5822 5821 5819 5818 5816 5814 5812 5810 5808
5813 5809 5801 5791 5783 5779 5777 5776 5776 5777 5777 5779 5780 5781 5781 5781 5782 5784 5786 5788 5790 5792 5794 5795 5796 5797 5798 5800 5803 5807 5811 5815 5817 5818 5817 5816 5815 5813 5812 5810 5808 5806 5803 5801
5802 5794 5786 5778 5771 5765 5764 5765 5766 5768 5769 5772 5774 5775 5775 5775 5777 5779 5781 5783 5785 5786 5788 5789 5790 5789 5791 5795 5800 5804 5808 5811 5812 5812 5811 5810 5808 5807 5806 5804 5802 5799 5797 5795
5789 5779 5770 5761 5756 5753 5752 5753 5755 5759 5762 5766 5768 5772 5770 5771 5773 5775 5776 5778 5780 5781 5782 5785 5786 5786 5789 5794 5798 5802 5805 5807 5807 5806 5805 5803 5802 5801 5799 5797 5794 5792 5790 5789
5776 5766 5757 5750 5745 5744 5745 5746 5749 5753 5755 5760 5764 5768 5766 5768 5769 5771 5772 5774 5775 5777 5779 5781 5783 5786 5790 5794 5797 5800 5802 5802 5801 5800 5798 5797 5795 5794 5791 5789 5786 5784 5783 5782
5764 5755 5748 5743 5742 5741 5741 5742 5745 5748 5752 5756 5760 5765 5765 5766 5767 5769 5770 5771 5773 5775 5778 5780 5783 5786 5789 5792 5795 5796 5797 5797 5795 5794 5792 5790 5788 5786 5784 5782 5780 5778 5777 5777
5756 5748 5743 5739 5737 5738 5739 5741 5743 5746 5750 5753 5757 5761 5763 5765 5766 5767 5768 5770 5772 5775 5778 5781 5783 5785 5787 5789 5791 5792 5792 5791 5790 5788 5785 5783 5780 5778 5777 5776 5775 5773 5772 5772
5753 5746 5741 5738 5738 5738 5740 5741 5743 5746 5749 5753 5756 5759 5762 5763 5764 5765 5766 5768 5771 5773 5776 5778 5781 5782 5784 5786 5787 5788 5787 5787 5785 5783 5780 5777 5774 5773 5773 5772 5770 5769 5767 5767
5750 5745 5742 5741 5741 5742 5743 5745 5747 5749 5751 5754 5756 5759 5760 5761 5762 5763 5764 5766 5768 5771 5774 5776 5777 5778 5779 5780 5780 5781 5781 5781 5780 5778 5775 5772 5769 5769 5768 5767 5766 5764 5762 5761
5751 5748 5746 5747 5747 5747 5749 5750 5751 5753 5755 5757 5758 5760 5760 5761 5761 5761 5763 5765 5767 5769 5770 5772 5774 5775 5775 5776 5775 5776 5776 5776 5775 5773 5771 5768 5767 5765 5764 5762 5761 5759 5757 5755
5757 5755 5754 5754 5755 5755 5757 5756 5757 5757 5758 5759 5760 5761 5761 5762 5761 5762 5763 5764 5766 5767 5769 5771 5772 5773 5773 5773 5773 5773 5773 5772 5771 5770 5767 5765 5763 5761 5759 5757 5755 5753 5752 5750
5766 5764 5763 5762 5762 5762 5762 5762 5762 5762 5763 5763 5763 5764 5764 5764 5764 5765 5766 5767 5768 5769 5770 5771 5771 5772 5772 5772 5772 5771 5771 5770 5769 5767 5764 5762 5759 5757 5754 5752 5750 5748 5745 5743
5775 5773 5772 5770 5769 5768 5769 5768 5767 5769 5768 5768 5767 5767 5767 5768 5769 5769 5770 5770 5771 5772 5772 5772 5772 5772 5772 5771 5771 5770 5768 5767 5765 5763 5760 5757 5755 5752 5749 5746 5743 5741 5739 5737
5784 5781 5778 5777 5775 5774 5774 5773 5774 5774 5774 5772 5772 5771 5771 5771 5772 5773 5773 5773 5774 5774 5774 5773 5773 5772 5771 5770 5769 5767 5765 5764 5761 5758 5756 5753 5750 5746 5743 5740 5737 5735 5733 5731
5790 5787 5784 5782 5781 5782 5778 5778 5778 5778 5776 5776 5775 5775 5775 5775 5775 5776 5776 5776 5776 5776 5775 5774 5773 5772 5770 5768 5767 5765 5763 5760 5758 5755 5752 5749 5746 5742 5739 5735 5733 5730 5728 5726
5796 5793 5790 5788 5787 5784 5782 5780 5780 5779 5779 5778 5778 5778 5778 5778 5778 5778 5778 5778 5777 5776 5776 5774 5772 5770 5769 5767 5765 5763 5760 5757 5754 5751 5748 5745 5741 5738 5734 5731 5729 5726 5724 5722
5800 5796 5793 5790 5788 5786 5784 5782 5781 5781 5780 5780 5780 5780 5780 5780 5780 5780 5779 5779 5778 5777 5775 5773 5771 5769 5767 5765 5763 5760 5757 5754 5750 5746 5743 5740 5736 5733 5730 5727 5725 5722 5720 5717
5803 5799 5795 5792 5789 5787 5785 5783 5782 5781 5781 5781 5781 5781 5781 5781 5781 5781 5780 5779 5778 5777 5775 5773 5770 5768 5766 5763 5761 5758 5754 5750 5746 5743 5739 5735 5732 5729 5726 5723 5721 5719 5716 5713
5806 5801 5797 5794 5790 5787 5785 5783 5782 5782 5782 5782 5782 5782 5782 5782 5781 5781 5780 5779 5778 5777 5775 5773 5770 5767 5765 5762 5759 5755 5751 5748 5744 5740 5736 5733 5729 5726 5724 5721 5719 5716 5713 5710